Wind_Speed
5 5 5 5 4 4 3 3 2 1 1 1 1 1 2 2 3 3 3 3 4 5 5 5 6 6 6 6 7 8 8 9 10 9 9 9 9 10 10 10 11 11 10
5 4 3 3 3 3 3 2 1 1 1 1 1 2 2 3 3 3 4 4 5 5 6 6 6 6 7 7 7 8 8 9 10 10 10 10 10 10 11 11 11 11 11
4 3 3 2 2 2 1 1 1 1 0 1 1 2 2 3 3 4 5 6 6 6 7 8 8 8 8 8 8 8 9 10 10 10 11 11 11 11 12 12 12 12 12
5 4 3 2 2 1 1 1 1 1 1 1 2 2 3 4 4 5 5 6 7 8 8 8 9 9 9 9 9 9 9 10 11 11 12 12 13 13 13 13 14 14 13
5 5 4 3 3 2 1 1 0 1 1 2 2 3 4 4 5 6 7 7 8 8 8 9 10 10 10 9 9 9 10 10 11 12 11 12 13 13 14 14 15 15 15
6 5 4 4 3 2 1 1 1 1 1 2 3 4 4 5 6 7 7 8 8 9 9 9 10 10 11 11 11 11 11 11 12 13 13 14 14 14 14 15 15 16 16
5 5 5 5 4 3 2 1 2 2 2 3 4 4 5 5 6 6 7 8 9 9 9 10 11 11 11 11 11 12 12 13 13 13 14 14 15 16 16 16 17 17 17
5 4 4 4 4 3 3 2 2 3 3 4 5 5 5 6 7 7 8 9 9 10 10 10 11 11 12 12 12 13 13 13 13 13 14 14 15 15 16 17 17 18 18
5 4 4 4 4 4 4 3 3 3 4 5 6 6 6 7 7 8 8 9 10 11 11 11 11 12 13 13 14 14 15 15 15 15 15 15 15 16 16 17 18 18 19
5 4 5 4 4 4 4 4 5 5 5 6 6 6 7 7 8 9 10 10 11 12 13 13 13 13 14 14 15 15 15 16 16 15 16 16 16 16 17 19 19 19 20
4 6 6 5 5 5 6 6 6 6 6 7 7 8 8 9 9 10 11 12 12 13 13 13 14 14 14 15 15 15 16 16 16 16 16 17 17 17 18 20 20 21 21
5 6 6 6 6 6 6 7 7 8 8 8 8 9 9 10 11 11 12 13 14 14 13 13 14 14 15 15 16 16 16 16 17 17 18 18 18 18 19 19 20 20 20
6 7 7 7 7 7 7 7 8 8 9 9 10 10 11 11 11 12 13 13 13 14 14 14 15 15 15 16 16 16 16 16 17 18 19 19 19 19 19 19 20 20 21
7 7 7 8 8 8 8 9 9 9 10 10 11 11 12 12 12 12 13 13 14 14 14 15 15 16 15 16 16 17 17 17 18 19 19 20 20 20 20 20 21 21 22
7 8 9 9 9 9 9 9 10 10 11 11 12 12 13 13 12 13 14 14 14 14 14 15 15 15 15 15 16 17 18 19 19 20 20 20 20 20 21 21 21 22 22
9 10 10 10 10 10 10 11 11 12 12 12 13 12 12 12 13 14 14 14 14 14 14 15 15 15 16 16 16 17 17 18 19 20 20 20 21 20 20 21 21 22 23
10 10 10 11 11 11 11 11 12 12 13 13 13 13 13 14 14 15 15 15 15 16 16 16 17 17 17 18 17 17 18 18 18 18 19 19 20 20 21 22 22 22 23
11 11 12 12 12 12 13 12 13 13 13 14 14 14 15 15 15 15 15 16 16 17 17 17 17 18 18 18 18 18 18 18 19 19 20 20 20 20 21 22 23 23 23
12 12 13 14 14 14 14 14 14 14 15 15 16 16 16 16 16 16 16 17 17 17 18 18 19 19 19 19 19 19 19 19 19 20 21 21 22 22 22 22 22 22 23
15 14 14 14 15 15 16 16 15 15 16 17 17 17 17 17 17 18 18 18 18 18 19 19 19 19 19 19 20 19 20 20 21 21 21 22 23 23 23 23 23 23 24
16 15 15 15 16 16 16 17 17 17 18 18 18 18 19 19 19 19 19 18 18 19 19 20 20 20 20 20 21 21 22 22 22 22 22 23 23 23 23 23 24 24 24
18 18 17 16 17 17 17 18 18 18 19 19 19 19 19 19 19 20 20 19 19 20 21 21 21 21 21 22 22 22 22 23 23 23 23 24 24 23 23 24 24 24 24
19 19 19 19 18 18 19 19 20 20 20 20 20 20 21 21 21 21 21 21 21 22 22 22 22 23 23 23 23 23 24 24 24 23 24 24 24 24 24 24 24 24 24
21 20 19 19 19 20 20 20 21 21 21 21 21 22 22 22 22 22 23 23 23 23 23 23 23 23 23 24 24 24 24 25 24 24 24 24 24 24 24 24 24 25 25
21 20 19 20 21 21 21 21 22 22 22 23 23 24 24 24 23 24 24 24 24 24 24 24 24 24 24 24 24 24 24 25 24 24 24 24 24 24 24 23 24 25 25
22 22 21 21 21 22 22 22 24 24 24 25 25 25 24 24 24 24 25 25 25 25 25 25 25 25 24 24 24 24 25 25 25 24 24 24 24 24 24 25 25 25 25
Wind_Direction
102 109 110 112 120 114 118 130 142 154 184 222 220 253 273 261 261 258 252 250 259 261 262 264 270 269 267 259 253 251 247 247 250 247 245 239 241 245 247 251 253 252 251
99 104 110 108 105 112 116 127 148 182 220 244 244 255 271 264 254 258 267 269 273 269 270 266 268 273 273 267 259 258 257 253 253 252 248 247 250 250 251 252 254 253 250
94 102 116 111 99 109 105 113 100 72 328 318 296 267 260 270 268 274 282 282 283 276 273 269 268 272 273 271 266 261 263 262 259 258 254 254 255 255 256 253 251 252 254
85 94 99 89 77 84 88 79 93 40 357 332 316 291 280 281 283 283 288 290 288 283 277 272 271 274 277 277 273 270 268 265 260 260 259 257 255 256 256 255 252 253 255
75 69 68 66 61 57 37 21 271 280 314 313 304 298 291 289 286 288 294 298 297 295 284 279 277 276 278 278 275 270 267 266 261 260 259 258 257 255 258 259 256 258 259
68 64 61 59 54 39 19 2 341 329 320 308 298 300 300 297 293 293 294 297 297 295 292 286 282 280 277 275 272 267 267 267 264 260 263 262 261 259 260 260 260 262 263
68 63 52 43 34 23 19 26 14 352 337 323 310 308 307 305 300 299 297 297 296 293 291 288 285 282 279 278 273 271 269 269 266 266 266 266 263 261 260 262 263 265 265
58 49 44 38 26 18 7 353 351 343 335 330 324 318 315 313 307 304 301 299 299 297 292 291 286 283 283 281 277 276 276 273 271 269 268 266 264 263 262 264 264 265 265
52 49 40 27 25 18 7 353 341 330 325 325 321 315 313 312 312 310 308 305 301 299 295 290 285 282 281 280 278 276 276 275 275 273 270 270 268 265 265 268 266 266 265
32 24 18 11 7 6 358 343 334 328 323 322 318 313 311 309 308 308 309 307 305 301 297 292 288 283 280 279 277 275 274 274 275 275 274 273 271 271 270 270 271 269 270
10 4 0 358 355 356 353 346 335 329 326 321 317 313 309 307 305 305 308 308 308 306 303 298 292 286 284 283 282 280 279 279 277 277 277 274 274 274 275 273 273 270 271
353 353 353 350 348 347 346 344 338 327 320 318 316 314 311 309 307 308 306 307 309 308 306 304 300 293 289 287 284 281 279 277 276 276 277 275 273 274 274 273 273 272 272
347 346 344 343 340 334 331 331 330 328 323 317 314 313 314 308 306 306 306 308 310 310 307 308 304 301 294 287 285 282 280 279 278 277 275 276 274 273 272 272 272 272 272
338 334 332 331 331 328 328 328 327 327 324 321 317 317 317 312 310 310 311 311 312 312 310 308 306 303 303 297 291 287 283 282 282 281 279 278 277 274 273 274 274 273 272
337 330 328 327 325 324 325 327 325 324 323 321 319 319 320 319 316 318 316 312 310 310 311 311 309 307 303 300 297 294 287 284 282 281 283 283 279 276 275 275 275 274 274
330 328 325 326 325 323 321 322 323 324 324 322 320 319 320 321 321 320 316 313 312 310 308 309 308 307 305 303 299 297 295 290 285 283 282 281 278 278 278 278 279 278 277
321 322 323 324 323 320 316 316 317 321 323 321 321 321 321 319 316 316 314 312 312 311 308 306 306 306 304 303 301 298 296 292 290 287 286 285 282 279 281 281 280 279 276
314 313 315 316 317 316 316 314 314 316 319 321 319 316 316 316 314 313 312 311 310 310 309 306 306 305 303 302 301 298 296 294 291 289 289 289 287 283 283 283 284 282 281
310 307 309 309 308 308 308 309 311 313 314 315 315 313 313 313 312 312 310 309 309 308 308 308 306 305 303 302 300 297 296 294 292 292 293 292 290 287 286 285 286 285 283
310 304 303 305 304 303 304 304 305 306 308 310 311 311 310 310 310 311 310 308 307 306 306 307 307 306 304 303 302 298 296 294 295 295 295 295 292 289 288 285 286 286 285
307 301 299 301 301 300 302 302 301 302 303 305 307 308 309 308 309 309 310 308 306 305 305 305 305 304 304 303 303 302 299 296 297 297 297 296 294 290 287 286 285 285 285
303 305 301 299 300 298 299 298 298 299 301 302 303 304 305 305 306 305 306 306 305 304 303 303 303 302 301 301 301 302 300 297 296 295 295 295 294 292 288 286 285 284 284
300 302 305 299 298 298 297 296 296 297 299 301 301 302 303 303 303 303 304 305 304 303 302 301 301 300 300 300 300 301 300 298 296 295 295 294 292 291 290 287 286 285 284
299 299 301 301 299 300 298 296 295 295 296 297 298 299 299 299 300 302 303 303 302 302 302 301 299 299 299 299 299 299 300 299 297 297 297 295 293 291 290 288 287 286 285
297 297 297 298 297 297 297 296 296 295 295 296 297 297 296 297 299 299 301 301 301 300 299 300 300 300 299 299 298 298 299 299 298 298 297 296 295 293 291 289 288 287 286
295 293 293 294 295 294 294 295 296 295 294 295 296 295 296 298 299 300 300 299 299 297 297 298 299 300 300 300 299 299 300 300 299 299 298 296 296 295 292 289 289 290 289
Height
5889 5889 5888 5888 5888 5889 5889 5889 5889 5889 5889 5889 5889 5890 5890 5890 5890 5890 5890 5890 5890 5889 5889 5889 5888 5888 5888 5887 5887 5888 5888 5888 5888 5888 5888 5888 5889 5889 5890 5890 5890 5890 5890
5889 5890 5890 5889 5889 5889 5890 5890 5890 5890 5890 5889 5889 5889 5889 5889 5889 5889 5889 5889 5888 5888 5888 5888 5887 5887 5887 5886 5886 5886 5886 5886 5886 5886 5886 5886 5887 5887 5887 5888 5888 5888 5888
5890 5890 5890 5890 5890 5890 5890 5890 5890 5890 5889 5889 5889 5889 5889 5889 5888 5888 5888 5887 5887 5887 5887 5886 5886 5885 5885 5884 5884 5884 5883 5884 5884 5884 5884 5884 5884 5885 5885 5885 5885 5885 5886
5891 5891 5890 5890 5890 5890 5890 5890 5889 5889 5889 5889 5889 5888 5888 5888 5888 5887 5887 5886 5886 5885 5885 5884 5884 5883 5883 5882 5882 5881 5881 5881 5882 5881 5881 5882 5882 5882 5882 5882 5882 5883 5883
5891 5891 5891 5891 5890 5890 5890 5889 5889 5889 5889 5888 5888 5888 5887 5887 5887 5886 5885 5885 5884 5883 5883 5882 5882 5881 5880 5880 5879 5879 5879 5879 5879 5879 5879 5879 5879 5879 5879 5879 5880 5880 5880
5893 5892 5892 5891 5891 5890 5889 5889 5888 5888 5888 5888 5887 5887 5886 5886 5885 5885 5884 5883 5882 5881 5881 5880 5879 5879 5878 5877 5877 5877 5876 5876 5876 5876 5876 5876 5875 5875 5876 5876 5876 5876 5876
5893 5893 5892 5891 5891 5890 5889 5889 5888 5888 5887 5887 5886 5886 5885 5884 5884 5883 5882 5882 5881 5880 5879 5878 5877 5876 5876 5875 5874 5874 5873 5873 5873 5873 5873 5872 5872 5872 5872 5872 5872 5872 5872
5894 5893 5893 5892 5891 5890 5889 5889 5888 5888 5887 5886 5886 5885 5884 5884 5882 5881 5880 5880 5879 5877 5877 5876 5875 5874 5873 5872 5872 5871 5871 5870 5870 5869 5869 5869 5869 5868 5868 5868 5868 5868 5868
5894 5893 5892 5892 5891 5890 5889 5888 5888 5887 5886 5886 5885 5884 5883 5882 5881 5880 5879 5878 5877 5875 5874 5873 5872 5871 5870 5869 5869 5868 5867 5867 5866 5866 5865 5865 5865 5865 5865 5864 5864 5863 5863
5894 5893 5892 5892 5891 5890 5889 5888 5887 5886 5885 5884 5884 5883 5882 5881 5880 5879 5877 5876 5875 5873 5872 5870 5869 5868 5867 5866 5865 5864 5864 5863 5863 5862 5861 5861 5861 5861 5860 5860 5859 5859 5858
5895 5893 5892 5891 5890 5889 5888 5887 5886 5885 5884 5883 5882 5881 5880 5879 5878 5877 5876 5874 5873 5871 5869 5868 5866 5865 5864 5863 5862 5861 5860 5860 5859 5858 5858 5857 5857 5856 5856 5855 5854 5854 5854
5895 5894 5892 5891 5890 5889 5888 5886 5885 5884 5883 5882 5881 5879 5878 5877 5876 5875 5873 5871 5870 5868 5866 5865 5863 5861 5860 5859 5858 5857 5856 5855 5855 5854 5854 5853 5852 5852 5851 5850 5850 5849 5849
5894 5893 5892 5891 5889 5888 5887 5885 5884 5883 5881 5880 5879 5877 5876 5874 5873 5872 5870 5869 5867 5865 5863 5861 5860 5858 5856 5855 5854 5853 5852 5851 5850 5850 5849 5848 5847 5847 5846 5845 5845 5844 5843
5893 5892 5891 5890 5888 5887 5885 5884 5883 5881 5880 5878 5877 5875 5873 5872 5870 5869 5868 5866 5864 5862 5860 5858 5856 5854 5853 5851 5850 5849 5848 5847 5846 5845 5844 5843 5842 5841 5841 5840 5839 5839 5838
5892 5891 5889 5888 5887 5885 5884 5882 5881 5879 5878 5876 5874 5873 5871 5869 5867 5866 5865 5863 5861 5859 5857 5855 5853 5851 5849 5848 5846 5845 5844 5843 5841 5840 5839 5838 5837 5836 5835 5835 5834 5833 5832
5891 5889 5888 5886 5885 5883 5881 5880 5878 5877 5875 5874 5872 5870 5868 5867 5865 5863 5861 5859 5858 5856 5854 5852 5850 5848 5846 5844 5842 5841 5839 5838 5837 5835 5834 5833 5832 5831 5830 5829 5828 5827 5826
5889 5887 5886 5884 5882 5881 5879 5878 5876 5874 5873 5871 5869 5868 5866 5864 5862 5860 5858 5856 5854 5852 5850 5848 5846 5844 5842 5840 5838 5836 5835 5833 5832 5830 5829 5828 5827 5826 5824 5823 5822 5821 5820
5887 5885 5883 5882 5880 5878 5876 5875 5873 5872 5870 5868 5866 5865 5863 5861 5859 5857 5855 5853 5851 5848 5847 5844 5842 5840 5838 5836 5834 5832 5830 5828 5827 5825 5824 5822 5821 5820 5818 5817 5816 5814 5813
5884 5882 5880 5879 5877 5875 5873 5872 5870 5869 5867 5865 5863 5861 5859 5857 5855 5853 5851 5849 5847 5845 5842 5840 5838 5835 5833 5831 5829 5827 5825 5823 5821 5820 5818 5817 5815 5814 5812 5811 5809 5808 5806
5880 5877 5876 5875 5873 5872 5870 5868 5866 5865 5863 5861 5859 5857 5855 5853 5851 5849 5847 5844 5842 5840 5838 5836 5833 5831 5828 5826 5824 5822 5820 5818 5816 5814 5813 5811 5809 5807 5806 5804 5803 5801 5800
5876 5873 5871 5871 5869 5868 5866 5864 5862 5861 5859 5857 5855 5853 5851 5849 5846 5844 5842 5840 5838 5835 5833 5831 5828 5826 5824 5821 5819 5817 5815 5813 5811 5809 5807 5805 5803 5801 5799 5798 5796 5795 5793
5873 5870 5868 5866 5865 5863 5861 5860 5858 5856 5854 5852 5851 5848 5846 5844 5842 5840 5837 5835 5833 5831 5828 5825 5823 5821 5818 5816 5814 5812 5809 5808 5805 5803 5801 5799 5796 5794 5792 5791 5789 5788 5786
5868 5866 5864 5862 5860 5858 5857 5855 5853 5851 5849 5847 5845 5843 5841 5839 5837 5835 5832 5830 5827 5825 5823 5820 5818 5815 5813 5811 5808 5806 5803 5801 5799 5797 5794 5792 5790 5788 5786 5784 5782 5780 5779
5863 5861 5859 5857 5855 5854 5852 5850 5848 5846 5844 5842 5840 5838 5835 5833 5831 5829 5826 5824 5821 5819 5817 5814 5812 5810 5807 5805 5802 5800 5797 5795 5792 5790 5788 5786 5783 5781 5779 5777 5775 5773 5772
5858 5855 5854 5852 5851 5849 5847 5845 5843 5840 5838 5836 5834 5831 5829 5827 5825 5822 5820 5817 5815 5813 5810 5808 5806 5803 5801 5798 5796 5794 5791 5789 5786 5783 5781 5779 5776 5774 5772 5770 5768 5766 5764
5852 5850 5848 5846 5845 5843 5841 5838 5836 5834 5832 5830 5827 5825 5822 5820 5818 5815 5813 5810 5808 5805 5803 5801 5799 5797 5794 5792 5789 5787 5784 5782 5779 5777 5774 5772 5769 5767 5765 5763 5761 5759 5757